Regional Weather Roundup
Issued by NWS

Home | Current Version | Previous Version | Graphics & Text | Print | Product List | Glossary On
Versions: 1 2 3 4 5 6 7 8 9 10 11 12 13 14 15 16 17 18 19 20 21 22 23 24 25 26 27 28 29 30 31 32 33 34 35 36 37 38 39 40 41 42 43 44 45 46 47 48 49 50
079
ASUS44 KLIX 061105
RWRLA
LOUISIANA WEATHER ROUNDUP
NATIONAL WEATHER SERVICE NEW ORLEANS LA
500 AM CST FRI MAR 06 2015

NOTE: "FAIR" INDICATES FEW OR NO CLOUDS BELOW 12,000 FEET WITH NO
      SIGNIFICANT WEATHER AND/OR OBSTRUCTIONS TO VISIBILITY.
      SKY/WX - SKY CONDITION AND SIGNIFICANT WEATHER.
      TMP - AIR TEMPERATURE.    DP   - DEWPOINT TEMPERATURE.
      RH  - RELATIVE HUMIDITY.  PRES - PRESSURE.
      HX  - HEAT INDEX.         WCI  - WIND CHILL INDEX.

*  THESE STATIONS ARE NOT NWS OR FAA STATIONS AND ARE NOT UNDER
   NWS QUALITY CONTROL.

LAZ040-048-061>063-065-066-069-061200-
SOUTHEAST LOUISIANA

CITY           SKY/WX    TMP DP  RH WIND       PRES   REMARKS
N.O. AUDUBON   NOT AVBL
N.O. INTL ARPT PTCLDY    32  22  66 N17       30.45R WCI  21
N.O. LAKEFRONT CLEAR     34  25  69 N21       30.46R WCI  22
SLIDELL        CLEAR     29  21  72 N13       30.44R WCI  19
BATON ROUGE    PTCLDY    27  15  61 VRB7      30.50R WCI  19
BOOTHVILLE     CLEAR     38  29  70 N12G25    30.38S WCI  30
BELLE CHASSE   CLEAR     32  22  66 N10G17    30.43R WCI  24
BOGALUSA*        N/A     29  22  74 N9        30.48R WCI  21
GALLIANO*      SUNNY     35  27  73 N12       30.43R WCI  27
NEW ROADS*     FAIR      27  12  54 N9        30.52R WCI  18
GONZALES*      FAIR      29  18  64 MISG      30.47S
HAMMOND*       PTCLDY    28  19  69 N8        30.49R WCI  20
HOUMA*         CLEAR     30  24  78 N9        30.44R WCI  21
PORT FOURCHON* SUNNY     36  27  69 N15G24    30.44R WCI  26

$$

LAZ041-044-053-054-061200-
SOUTHWEST LOUISIANA

CITY           SKY/WX    TMP DP  RH WIND       PRES   REMARKS
LAKE CHARLES   CLEAR     30  19  63 N10       30.53R WCI  21
LAFAYETTE      CLEAR     29  14  53 N13       30.50S WCI  19
PATTERSON      PTCLDY    30  19  64 N10       30.47R WCI  21
SALT POINT       N/A     31  19  61 N6        30.45R WCI  25
NEW IBERIA     NOT AVBL
CHENAULT AIRPK NOT AVBL

$$

LAZ027-028-061200-
CENTRAL LOUISIANA

CITY           SKY/WX    TMP DP  RH WIND       PRES   REMARKS
FORT POLK      CLEAR     27  18  69 N6        30.53R WCI  20
ALEXANDRIA INT CLEAR     26  19  74 N5        30.55R WCI  20
ALEXANDRIA     CLEAR     27  17  66 VRB3      30.55R

$$

LAZ001-002-061200-
NORTHWEST LOUISIANA

CITY           SKY/WX    TMP DP  RH WIND       PRES   REMARKS
SHREVEPORT     PTCLDY    27  21  78 N3        30.57S
BARKSDALE AFB  CLEAR     24  22  92 CALM      30.58R
DTN SHREVEPORT CLEAR     25  20  81 CALM      30.59R

$$

LAZ014-016-061200-
NORTHEAST LOUISIANA

CITY           SKY/WX    TMP DP  RH WIND       PRES   REMARKS
MONROE         CLEAR     23  18  81 N5        30.60R WCI  17
TALLULAH       CLEAR     25  15  66 N12       30.57R WCI  14

$$




USA.gov is the U.S. government's official web portal to all federal, state and local government web resources and services.